Regional Weather Roundup
Issued by NWS

Home | Current Version | Previous Version | Graphics & Text | Print | Product List | Glossary Off
Versions: 1 2 3 4 5 6 7 8 9 10 11 12 13 14 15 16 17 18 19 20 21 22 23 24 25 26 27 28 29 30 31 32 33 34 35 36 37 38 39 40 41 42 43 44 45 46 47 48 49 50

000
ASUS43 KTOP 231159
RWRKS

WEATHER ROUNDUP FOR KANSAS
NATIONAL WEATHER SERVICE GOODLAND KS
700 AM CDT THU OCT 23 2014

NOTE:  "FAIR" INDICATES FEW OR NO CLOUDS BELOW 12,000 FEET WITH NO
SIGNIFICANT WEATHER AND/OR OBSTRUCTIONS TO VISIBILITY.

KSZ001>006-013>018-027>032-041>047-231300-
NORTHWEST KANSAS

CITY           SKY/WX    TMP DP  RH WIND       PRES   REMARKS
GOODLAND       MOCLDY    44  42  93 W5        30.12S
6HR MIN TEMP:  41; 6HR MAX TEMP:  49;

HAYS           CLOUDY    54  48  82 CALM      30.08R VSB 1/2
HILL CITY      FOG       50  49  96 W3        30.09S VSB 1/4
6HR MIN TEMP:  48; 6HR MAX TEMP:  57;

RUSSELL        FOG       56  56 100 SW5       30.06R VSB 3/4
6HR MIN TEMP:  53; 6HR MAX TEMP:  61;

$$

KSZ061>065-074>080-084>089-231300-
SOUTHWEST KANSAS

CITY           SKY/WX    TMP DP  RH WIND       PRES   REMARKS
DODGE CITY     CLOUDY    57  55  93 S3        30.08R FOG
6HR MIN TEMP:  55; 6HR MAX TEMP:  62;

ELKHART          N/A     50  47  90 W6          N/A
GARDEN CITY    FOG       56  56 100 CALM      30.07S VSB 1/4
6HR MIN TEMP:  55; 6HR MAX TEMP:  61; 6HR PCP: TRACE;

GREAT BEND     CLOUDY    61  55  82 S5        30.08R
LIBERAL          N/A     52  46  82 SW6       30.08S VSB 1/2
$$

KSZ066>073-081>083-090>101-231300-
SOUTHEAST KANSAS

CITY           SKY/WX    TMP DP  RH WIND       PRES   REMARKS
CHANUTE        LGT RAIN  59  57  93 S8        30.11S
6HR MIN TEMP:  59; 6HR MAX TEMP:  63; 6HR PCP:  0.10;

COFFEYVILLE    LGT RAIN  59  58  96 S9        30.12S
6HR MIN TEMP:  59; 6HR MAX TEMP:  64; 6HR PCP:  0.02;

HUTCHINSON     CLOUDY    61  57  87 S6        30.08R
6HR MIN TEMP:  61; 6HR MAX TEMP:  63;

NEWTON         CLOUDY    61  54  77 S9        30.10S
PARSONS        CLOUDY    59  58  96 S6        30.13S
6HR MIN TEMP:  59; 6HR MAX TEMP:  64; 6HR PCP: TRACE;

WICHITA INTL   CLOUDY    62  58  86 S10       30.07F
6HR MIN TEMP:  61; 6HR MAX TEMP:  64; 6HR PCP:  0.03;

WICHITA JABRA  CLOUDY    61  58  90 S9        30.08S
6HR MIN TEMP:  60; 6HR MAX TEMP:  64; 6HR PCP:  0.01;

WINFIELD       PTCLDY    61  60  97 S7        30.10R
6HR MIN TEMP:  61; 6HR MAX TEMP:  63; 6HR PCP:  0.02;

$$

KSZ007>012-019>026-033>040-048>060-102>105-231300-
NORTHEAST KANSAS

CITY           SKY/WX    TMP DP  RH WIND       PRES   REMARKS
CONCORDIA      CLOUDY    61  60  97 SW3       30.06S
6HR MIN TEMP:  59; 6HR MAX TEMP:  61;

EMPORIA        CLOUDY    61  61 100 S6        30.09R FOG
6HR MIN TEMP:  61; 6HR MAX TEMP:  62; 6HR PCP:  0.08;

LAWRENCE       LGT RAIN  60  58  92 SW8       30.09F FOG
6HR MIN TEMP:  59; 6HR MAX TEMP:  62; 6HR PCP:  0.79;

MANHATTAN      CLOUDY    61  60  97 CALM      30.07R FOG
6HR MIN TEMP:  61; 6HR MAX TEMP:  62; 6HR PCP:  0.24;

OLATHE IND     LGT RAIN  59  58  96 SW8       30.10F FOG
6HR MIN TEMP:  57; 6HR MAX TEMP:  61; 6HR PCP:  0.12;

OLATHE EXE     LGT RAIN  57  57 100 SW9       30.08F FOG
6HR MIN TEMP:  57; 6HR MAX TEMP:  60; 6HR PCP:  0.06;

SALINA         CLOUDY    62  58  86 S3        30.07R
6HR MIN TEMP:  62; 6HR MAX TEMP:  64; 6HR PCP:  0.01;

TOPEKA BILLARD LGT RAIN  61  60  97 SE6       30.09R FOG
6HR MIN TEMP:  61; 6HR MAX TEMP:  64; 6HR PCP:  1.22;

TOPEKA FORBES  LGT RAIN  60  59  96 SE7       30.09R
6HR MIN TEMP:  60; 6HR MAX TEMP:  63; 6HR PCP:  1.41;

$$



USA.gov is the U.S. government's official web portal to all federal, state and local government web resources and services.